SCP
0 0 0 0 0 0 0 0 0 0 0 0 0 0 0 0 0 0 0 0 0 0 0 0 0 0 0 0 1 1 1 1 1 1 1 0 0 0 0 0 0 0 0 0
0 0 0 0 0 0 0 0 0 0 0 0 0 0 0 0 0 0 0 0 0 0 0 0 0 0 0 0 1 1 1 1 1 1 1 1 0 0 0 0 0 0 0 0
0 0 0 0 0 0 0 0 0 0 0 0 0 0 0 0 0 0 0 0 0 0 0 0 0 0 0 0 1 1 1 1 1 1 1 1 1 0 0 0 0 0 0 0
0 0 0 0 0 0 0 0 0 0 0 0 0 0 0 0 0 0 0 0 0 0 0 0 0 0 0 1 1 1 1 1 1 1 1 1 1 1 1 1 1 0 0 0
0 0 0 0 0 0 0 0 0 0 0 0 0 0 0 0 0 0 0 0 0 0 1 1 1 1 1 1 1 1 1 1 1 1 1 1 1 1 1 1 1 1 0 0
0 0 0 0 0 0 0 0 0 0 0 0 0 0 0 0 0 0 0 0 0 0 0 1 1 1 1 1 1 1 1 1 1 1 1 1 1 1 1 1 1 1 0 0
0 0 0 0 0 0 0 0 0 0 0 0 0 0 0 0 0 0 0 0 0 0 0 1 1 1 1 1 1 1 2 2 1 1 1 1 1 1 1 1 1 0 0 0
0 0 0 0 0 0 0 0 0 0 0 0 0 0 0 0 0 0 0 0 0 0 0 1 1 1 1 1 1 2 2 2 1 1 1 1 1 1 1 1 0 0 0 0
0 0 0 0 0 0 0 0 0 0 0 0 0 0 0 0 0 0 0 0 0 0 0 1 1 1 1 1 1 2 2 2 2 1 1 1 1 1 1 0 0 0 0 1
0 0 0 0 0 0 0 0 0 0 0 0 0 0 0 0 0 0 0 0 0 0 0 1 1 1 1 1 1 1 2 2 2 1 1 1 1 1 1 0 0 1 1 1
0 0 0 0 0 0 0 0 0 0 0 0 0 0 0 0 0 0 0 0 0 0 0 1 1 1 1 1 1 1 2 2 2 1 1 1 1 1 1 1 1 1 1 1
0 0 0 0 0 0 0 0 0 0 0 0 0 0 0 0 0 0 0 0 0 0 1 1 1 1 1 1 1 1 1 1 1 1 1 1 1 1 1 1 1 1 1 1
0 0 0 0 0 0 0 0 0 0 0 0 0 0 0 0 0 0 0 0 1 1 1 1 1 1 1 1 1 1 1 1 1 1 1 1 1 1 1 1 1 1 1 1
0 0 0 0 0 0 0 0 0 0 0 0 0 0 0 0 0 0 0 0 1 1 1 1 1 1 1 1 1 1 1 1 1 1 1 1 1 1 1 1 1 1 1 1
0 0 0 0 0 0 0 0 0 0 0 0 0 0 0 0 0 0 0 1 1 1 1 1 1 1 1 1 1 1 1 1 1 1 1 1 1 1 1 1 1 1 1 1
0 0 0 0 0 0 0 0 0 0 0 0 0 0 0 0 0 0 0 1 1 1 1 1 1 1 1 1 1 1 1 1 1 1 1 1 1 1 1 1 1 1 1 1
0 0 0 0 0 0 0 0 0 0 0 0 0 0 0 0 1 1 1 1 1 1 1 1 1 1 1 1 1 1 1 1 1 1 1 1 1 1 1 1 1 1 1 1
0 0 0 0 0 0 0 0 0 0 0 0 0 0 0 0 1 1 1 1 1 1 2 1 1 1 1 1 1 1 1 1 1 1 1 1 1 1 1 1 1 1 1 1
0 0 0 0 0 0 0 0 0 0 0 0 0 0 1 1 1 1 1 1 1 2 2 1 1 1 1 1 1 1 1 1 1 1 1 1 1 1 1 1 1 1 1 1
0 0 0 0 0 0 0 0 0 0 0 0 1 1 1 1 1 1 1 1 2 2 2 1 1 1 1 1 1 1 1 1 1 1 1 1 1 1 1 1 1 1 1 1
0 0 0 0 0 0 0 0 0 0 0 0 1 1 1 1 1 1 1 1 2 2 1 1 1 1 1 1 1 1 1 1 1 1 1 1 1 1 1 1 1 1 1 1
0 0 0 0 0 0 0 0 0 0 0 0 1 1 1 1 1 1 1 1 1 1 1 1 1 1 1 1 1 1 1 1 1 1 1 1 1 1 1 1 1 1 1 1
0 0 0 0 0 0 0 0 0 0 0 0 1 1 1 1 1 1 1 1 1 1 1 1 1 1 1 1 1 1 1 1 1 1 1 1 1 1 1 1 1 1 1 1
0 0 0 0 0 0 0 0 0 0 0 0 0 1 1 1 1 1 1 1 1 1 1 1 1 1 1 1 1 1 1 1 1 1 1 1 1 1 1 1 1 1 1 1
0 0 0 0 0 0 0 0 0 0 0 0 0 1 1 1 1 1 1 1 1 1 1 1 1 1 1 1 1 1 1 1 1 1 1 0 0 0 1 1 1 1 1 1
0 0 0 1 1 0 0 1 0 0 0 0 0 0 0 0 1 1 1 1 1 1 1 1 1 1 1 1 1 1 1 1 1 1 0 0 0 0 0 0 0 0 0 0
Wind_Speed
12 11 9 8 7 8 10 6 4 3 2 2 3 5 7 7 7 8 8 10 10 11 11 10 10 10 10 9 7 6 5 4 3 2 2 1 1 2 1 2 3 3 2 2
9 11 11 9 6 8 9 7 5 3 4 3 3 4 6 6 7 7 9 10 11 12 11 10 10 10 10 9 7 6 5 4 3 2 1 1 1 1 1 2 2 2 1 1
11 9 10 10 8 9 8 7 5 5 4 3 4 5 5 5 5 6 8 9 10 12 13 11 10 10 10 9 8 7 6 5 4 3 2 1 1 1 1 2 2 1 1 1
10 10 9 10 8 8 8 6 6 6 7 5 5 3 2 5 5 6 7 9 9 10 11 11 10 10 10 9 8 7 6 5 4 3 2 2 1 1 1 1 2 2 1 1
10 11 10 10 7 6 7 6 7 7 8 8 5 4 3 6 4 5 6 7 8 9 10 10 10 9 9 9 8 8 7 5 4 3 2 2 1 1 1 2 2 1 1 1
12 9 10 9 7 7 7 8 9 8 8 8 5 4 3 6 6 6 8 7 6 7 9 9 9 8 8 8 8 8 7 5 4 3 2 2 1 1 1 1 1 1 1 1
12 11 10 8 9 8 9 8 6 6 6 5 4 3 3 6 7 6 7 7 8 8 8 7 8 8 7 7 7 7 7 5 5 4 3 2 1 1 1 1 1 1 1 1
10 10 9 8 8 7 8 8 7 6 6 3 2 0 5 7 8 8 7 7 9 8 8 6 6 7 6 7 6 7 7 5 5 4 3 2 2 1 1 1 1 0 0 1
8 7 7 9 8 9 9 8 8 8 7 6 1 3 6 8 9 9 8 8 9 9 9 8 6 6 6 6 6 6 7 5 5 4 3 2 2 1 0 0 0 1 1 0
9 6 8 8 8 10 11 8 6 6 4 6 4 3 3 7 7 8 7 8 9 9 9 9 7 4 5 6 6 6 7 6 5 5 4 3 2 2 1 1 1 0 1 1
10 9 8 8 9 9 9 9 7 6 6 6 4 1 5 6 7 7 7 6 8 8 7 8 7 6 5 5 5 4 5 5 5 4 3 3 3 2 2 1 1 1 1 1
8 9 9 9 8 8 10 9 9 7 6 6 5 0 4 5 7 7 6 7 6 7 8 7 7 6 5 5 5 4 4 4 4 4 3 3 2 2 2 1 1 1 1 1
4 7 8 9 8 8 9 9 10 10 7 6 5 2 3 4 6 6 6 7 7 7 8 7 7 6 5 4 4 3 3 3 3 3 3 3 2 2 2 1 1 1 1 1
7 9 10 10 7 6 8 10 10 10 8 7 5 6 6 5 5 7 5 7 8 7 7 6 6 5 4 4 3 3 2 2 2 2 2 2 2 3 2 2 1 1 1 1
8 10 12 13 12 10 10 10 11 10 10 9 4 4 6 6 5 6 6 6 8 7 6 6 5 4 4 3 3 2 1 1 2 2 2 2 2 2 2 1 1 1 1 1
6 8 11 13 14 13 13 12 12 11 9 8 4 2 3 5 6 7 7 6 6 6 5 5 4 4 3 3 2 1 0 1 1 2 2 2 2 2 2 2 1 1 1 1
7 7 10 12 12 14 14 9 9 8 8 6 4 1 3 4 4 4 6 5 6 5 5 3 3 3 3 3 3 2 1 1 1 1 1 1 1 1 1 2 1 1 1 1
7 6 7 11 11 14 7 5 6 6 4 2 1 4 4 5 5 5 4 5 5 5 4 3 2 2 3 3 3 2 1 1 1 1 1 1 1 1 1 1 1 1 1 1
7 6 8 9 11 11 8 3 4 4 2 2 2 2 3 6 6 6 5 5 4 5 4 3 2 2 1 1 1 1 1 1 1 1 1 0 1 1 1 1 1 1 1 1
9 7 8 8 10 9 3 3 5 5 3 3 3 1 2 4 2 3 5 5 6 5 4 3 2 3 2 2 1 1 1 1 1 0 0 0 1 1 1 1 1 1 1 2
8 8 9 10 10 6 2 2 4 5 2 5 4 3 3 2 3 4 4 5 5 4 4 4 3 3 3 2 2 1 1 2 2 1 1 1 1 1 1 1 1 1 1 2
7 6 7 8 9 3 5 2 2 3 4 4 4 3 3 5 5 5 5 5 4 4 4 4 4 3 3 3 2 1 1 1 1 1 1 1 1 2 1 1 1 1 2 2
4 2 3 2 0 3 4 4 4 3 4 3 3 2 4 4 3 4 4 4 3 3 3 3 3 3 3 3 2 2 2 2 1 1 1 1 2 1 0 1 1 2 1 2
2 1 2 1 2 2 2 4 4 4 3 2 2 2 3 3 3 3 3 2 2 1 1 1 1 1 2 2 3 3 2 2 1 1 1 1 2 1 0 1 1 2 2 2
2 1 2 2 0 0 1 3 3 3 2 2 2 2 2 2 2 1 1 1 1 1 1 1 1 0 1 2 2 3 2 1 2 2 1 2 2 1 1 2 2 2 1 2
4 2 3 2 1 1 2 3 3 2 2 2 2 2 1 1 0 1 1 1 1 0 1 1 1 1 2 2 2 2 2 2 2 2 2 2 2 2 2 2 1 1 1 1
Wind_Direction
231 233 235 230 217 239 260 264 248 222 174 190 160 152 158 165 158 152 153 150 157 153 147 145 144 136 132 128 129 130 125 120 126 120 125 124 122 125 120 110 94 90 59 47
232 236 243 243 222 243 259 266 276 225 175 207 202 190 176 170 167 157 154 153 159 151 146 148 149 142 139 138 139 134 132 133 140 118 113 123 120 117 108 90 99 100 83 42
233 239 243 245 238 248 256 249 254 266 231 211 235 222 169 158 149 143 147 150 161 154 151 155 154 147 145 144 146 149 147 147 157 149 145 119 113 88 93 117 118 107 103 78
237 240 240 245 239 242 260 270 275 273 276 251 252 248 169 156 155 166 168 156 154 145 145 157 159 156 152 149 150 144 142 150 153 158 163 161 152 140 138 125 118 116 121 115
238 236 242 248 248 251 266 283 281 277 279 276 259 244 188 153 167 171 153 142 146 140 139 147 152 154 153 151 151 146 143 145 147 167 168 168 146 123 130 121 112 127 148 161
254 239 238 253 252 251 255 257 258 260 264 262 261 261 194 160 169 167 139 132 129 131 134 139 139 137 141 144 145 144 141 143 149 162 151 148 144 141 119 108 133 188 154 156
241 242 234 240 249 242 246 253 260 259 251 255 239 229 147 135 138 141 136 137 131 120 114 123 133 140 138 136 140 136 138 147 150 154 151 157 164 168 149 196 200 233 182 148
231 228 222 226 241 253 250 257 263 277 281 281 290 175 122 121 130 128 127 136 129 126 124 117 127 138 141 140 135 137 139 150 160 163 165 169 173 194 190 234 286 275 14 69
246 230 215 227 234 247 251 256 267 274 281 282 231 139 135 116 115 121 131 136 133 133 129 123 119 132 135 140 134 138 143 153 161 157 157 161 172 217 243 190 324 340 347 35
264 249 231 216 219 231 250 266 282 282 279 275 259 223 142 130 131 130 128 135 127 129 134 131 126 116 134 134 129 136 147 155 158 160 174 169 169 186 201 251 134 91 4 17
255 262 247 235 224 232 229 246 258 273 280 284 278 192 134 142 128 129 132 123 126 125 119 116 122 127 116 117 121 121 144 155 158 165 174 163 163 182 199 210 193 152 193 229
236 253 254 243 241 238 246 249 252 250 253 263 275 271 117 130 127 119 122 123 121 124 119 118 115 108 101 97 101 109 131 146 157 158 158 160 159 175 193 186 163 200 199 225
262 258 254 242 227 226 242 248 257 266 260 251 252 165 153 127 123 120 116 125 127 117 111 109 107 101 91 85 85 97 112 134 136 137 153 152 161 177 189 188 170 192 199 214
255 253 261 263 263 244 240 247 249 262 272 268 248 164 172 157 144 128 124 134 125 118 111 107 108 107 98 92 89 88 92 114 125 136 164 159 176 181 189 196 178 166 182 206
247 250 261 270 270 261 255 248 243 247 260 269 257 184 162 153 131 127 136 133 125 127 121 116 116 112 112 101 91 89 86 99 125 152 185 161 188 176 179 184 178 169 197 204
244 263 270 266 264 266 261 248 245 243 248 249 235 237 127 108 125 141 140 137 133 131 126 123 122 122 122 122 120 112 125 96 121 172 175 155 169 170 183 191 181 184 191 193
246 251 263 265 262 262 256 254 251 252 255 264 243 186 126 121 132 130 132 142 141 134 128 122 126 137 143 148 144 149 148 144 161 161 140 140 156 165 186 209 185 193 195 191
237 255 256 263 265 257 257 274 279 268 270 299 102 121 132 149 135 117 123 134 130 129 126 120 123 129 151 154 145 150 174 169 162 128 139 170 194 196 187 206 195 191 194 205
218 226 249 254 257 255 251 263 297 281 292 8 32 110 144 127 128 114 98 96 108 109 109 113 117 110 83 95 104 148 197 197 184 157 166 256 260 230 184 211 226 223 210 219
222 213 235 252 261 263 269 338 333 291 242 28 31 22 124 124 171 95 77 77 85 84 84 80 70 68 64 61 61 348 319 308 291 305 7 295 285 294 272 236 232 237 232 227
222 221 231 246 256 263 347 343 307 270 13 20 28 49 61 78 65 98 91 78 73 70 74 67 58 53 49 47 52 2 327 320 335 335 316 287 273 267 254 232 229 226 251 246
233 236 238 248 250 243 16 22 39 47 27 19 17 29 58 81 91 102 97 86 79 68 67 63 58 45 36 33 31 357 333 326 345 352 344 337 315 280 257 224 255 249 251 256
234 270 281 275 344 77 62 64 63 59 52 18 357 61 93 101 103 101 101 97 86 74 63 63 64 42 24 21 4 332 339 349 358 20 14 340 311 298 306 241 246 257 237 244
203 70 257 245 127 77 54 60 51 42 40 30 42 75 97 95 99 106 106 105 105 109 107 94 82 43 8 355 345 340 344 346 348 348 327 281 282 283 305 278 256 251 251 240
326 290 261 262 239 149 54 45 42 37 34 48 48 75 90 94 101 91 95 115 116 82 83 96 98 38 336 343 337 334 342 343 324 313 296 285 280 281 259 260 275 259 262 237
309 304 270 260 350 342 30 47 45 39 43 41 41 53 60 73 82 75 66 55 36 46 36 20 8 336 333 336 335 339 337 326 305 294 301 298 286 285 276 258 270 14 220 170